W5COG Weather Reports


time (UTC)temp
F
wind
direction
speed
knots
gust
knots
rain 1hr
in
rain 24hr
in
rain mn
in
humidity
%
barometer
mb
20260505184028 55 35 4.3 9.6 0.00 0.00 0.00 71 1007.0
20260505183528 55 49 3.5 11.3 0.00 0.00 0.00 74 1007.2
20260505183028 55 42 5.2 11.3 0.00 0.00 0.00 74 1007.4
20260505182528 55 33 3.5 8.7 0.00 0.00 0.00 74 1007.4
20260505182028 55 35 3.5 8.7 0.00 0.00 0.00 75 1007.2
20260505181528 55 49 3.5 7.8 0.00 0.00 0.00 76 1007.3
20260505181028 55 32 4.3 9.6 0.00 0.00 0.00 76 1007.3
20260505180527 55 39 4.3 9.6 0.00 0.00 0.00 75 1007.4
20260505180027 55 12 2.6 7.0 0.00 0.00 0.00 77 1007.3
20260505175528 55 57 4.3 12.2 0.00 0.00 0.00 77 1007.3
20260505175028 55 56 5.2 9.6 0.00 0.00 0.00 77 1007.3
20260505174528 55 51 5.2 8.7 0.00 0.00 0.00 77 1007.0
20260505174028 55 45 4.3 8.7 0.00 0.00 0.00 78 1006.8
20260505173527 55 41 3.5 7.8 0.00 0.00 0.00 78 1006.6
20260505173027 55 33 3.5 7.8 0.00 0.00 0.00 78 1006.6
20260505172528 55 47 4.3 8.7 0.00 0.00 0.00 79 1006.6
20260505172028 54 37 3.5 8.7 0.00 0.00 0.00 79 1006.6
20260505171528 54 38 4.3 9.6 0.00 0.00 0.00 79 1006.5
20260505171028 54 34 5.2 11.3 0.00 0.00 0.00 79 1006.4
20260505170527 55 48 3.5 9.6 0.00 0.00 0.00 80 1006.3
20260505170027 55 39 3.5 7.0 0.00 0.00 0.00 81 1006.4
20260505164528 54 52 6.1 12.2 0.00 0.00 0.00 81 1005.9
20260505164028 55 44 5.2 9.6 0.00 0.00 0.00 81 1005.7
20260505163527 55 60 5.2 11.3 0.00 0.00 0.00 81 1005.7
20260505163028 55 46 5.2 18.2 0.00 0.00 0.00 83 1005.6
20260505162528 55 45 5.2 11.3 0.00 0.00 0.00 83 1005.5
20260505162028 55 66 5.2 10.4 0.00 0.00 0.00 84 1005.5
20260505161528 55 42 4.3 8.7 0.00 0.00 0.00 84 1005.3
20260505161028 55 39 4.3 8.7 0.00 0.00 0.00 83 1005.3
20260505153028 58 44 4.3 7.8 0.00 0.00 0.00 80 1004.6
20260505152528 59 36 4.3 10.4 0.00 0.00 0.00 81 1004.6
20260505152028 59 46 4.3 10.4 0.00 0.00 0.00 80 1004.5
20260505151528 60 35 4.3 9.6 0.00 0.00 0.00 81 1004.5
20260505140528 65 46 3.5 6.1 0.00 0.00 0.00 80 1003.2
20260505125028 65 90 5.2 8.7 0.00 0.00 0.00 80 1002.3
20260505124527 65 104 5.2 9.6 0.00 0.00 0.00 80 1002.3
20260505124027 65 98 5.2 12.2 0.00 0.00 0.00 80 1002.4
20260505123527 65 85 6.1 10.4 0.00 0.00 0.00 80 1002.5
20260505123027 65 96 4.3 10.4 0.00 0.00 0.00 80 1002.6
20260505122527 65 99 6.1 12.2 0.00 0.00 0.00 80 1002.5
20260505122027 65 88 7.0 13.9 0.00 0.00 0.00 80 1002.4
20260505121527 65 96 7.0 9.6 0.00 0.00 0.00 80 1002.2
20260505121027 65 98 7.8 12.2 0.00 0.00 0.00 80 1002.1
20260505120527 65 93 7.0 12.2 0.00 0.00 0.00 80 1002.1
20260505120028 65 101 6.1 12.2 0.00 0.00 0.00 80 1002.1
20260505115528 65 92 6.1 11.3 0.00 0.00 0.00 80 1002.1
20260505115028 65 87 6.1 12.2 0.00 0.00 0.00 80 1002.2
20260505114528 65 82 6.1 13.9 0.00 0.00 0.00 79 1002.2
20260505114028 65 94 5.2 9.6 0.00 0.00 0.00 80 1002.1
20260505113528 65 84 6.1 13.0 0.00 0.00 0.00 80 1002.1
20260505113027 65 82 6.1 11.3 0.00 0.00 0.00 80 1002.1
20260505112527 65 88 6.1 9.6 0.00 0.00 0.00 80 1002.1
20260505111027 65 73 5.2 10.4 0.00 0.00 0.00 80 1001.9
20260505110527 65 82 5.2 8.7 0.00 0.00 0.00 80 1002.0
20260505102027 66 64 3.5 10.4 0.00 0.00 0.00 77 1001.4
20260505101527 66 68 4.3 7.0 0.00 0.00 0.00 77 1001.4
20260505101027 66 77 4.3 7.8 0.00 0.00 0.00 77 1001.3
20260505100527 66 63 4.3 8.7 0.00 0.00 0.00 76 1001.2
20260505100027 66 86 4.3 8.7 0.00 0.00 0.00 76 1001.0
20260505095527 66 74 5.2 10.4 0.00 0.00 0.00 76 1001.0
20260505095027 66 74 4.3 9.6 0.00 0.00 0.00 76 1000.9
20260505094527 66 77 4.3 10.4 0.00 0.00 0.00 76 1000.8
20260505094027 66 87 5.2 12.2 0.00 0.00 0.00 76 1000.8
20260505093028 66 88 5.2 11.3 0.00 0.00 0.00 75 1000.7
20260505092528 66 83 5.2 10.4 0.00 0.00 0.00 75 1000.7
20260505092028 66 91 5.2 8.7 0.00 0.00 0.00 75 1000.8
20260505091528 66 84 4.3 8.7 0.00 0.00 0.00 75 1000.8
20260505091029 66 94 5.2 12.2 0.00 0.00 0.00 75 1000.8
20260505090527 66 90 4.3 7.8 0.00 0.00 0.00 75 1000.9
20260505090028 66 95 5.2 9.6 0.00 0.00 0.00 75 1000.9
20260505085528 66 94 4.3 10.4 0.00 0.00 0.00 75 1000.9
20260505085027 66 94 4.3 8.7 0.00 0.00 0.00 75 1001.0
20260505084527 66 92 4.3 8.7 0.00 0.00 0.00 74 1001.0
20260505084028 66 92 4.3 8.7 0.00 0.00 0.00 74 1001.0
20260505083528 66 94 6.1 13.0 0.00 0.00 0.00 74 1001.0
20260505083028 66 87 5.2 9.6 0.00 0.00 0.00 74 1001.0
20260505082527 66 99 4.3 7.8 0.00 0.00 0.00 75 1001.1
20260505082028 66 84 4.3 7.8 0.00 0.00 0.00 74 1001.2
20260505081528 66 94 3.5 8.7 0.00 0.00 0.00 74 1001.3
20260505081028 66 82 4.3 7.8 0.00 0.00 0.00 74 1001.3
20260505080528 66 84 4.3 7.0 0.00 0.00 0.00 74 1001.3
20260505080027 66 77 4.3 7.8 0.00 0.00 0.00 74 1001.4
20260505075528 66 88 4.3 8.7 0.00 0.00 0.00 74 1001.4
20260505074027 67 88 5.2 9.6 0.00 0.00 0.00 73 1001.5
20260505073527 67 83 5.2 9.6 0.00 0.00 0.00 73 1001.5
20260505073027 67 91 5.2 7.8 0.00 0.00 0.00 73 1001.7
20260505072528 67 93 4.3 7.8 0.00 0.00 0.00 73 1001.9
20260505072027 68 86 3.5 6.1 0.00 0.00 0.00 72 1001.9
20260505071527 68 87 4.3 7.8 0.00 0.00 0.00 73 1002.1
20260505071028 68 75 4.3 8.7 0.00 0.00 0.00 72 1002.1
20260505070528 68 76 3.5 7.0 0.00 0.00 0.00 72 1002.1
20260505070027 68 87 3.5 6.1 0.00 0.00 0.00 73 1002.1
20260505065527 68 78 3.5 5.2 0.00 0.00 0.00 73 1002.2
20260505065028 68 81 4.3 7.0 0.00 0.00 0.00 73 1002.2
20260505064027 68 73 3.5 4.3 0.00 0.00 0.00 74 1002.4
20260505063527 68 77 2.6 5.2 0.00 0.00 0.00 74 1002.4
20260505063027 68 76 2.6 4.3 0.00 0.00 0.00 74 1002.4
20260505062527 67 63 2.6 4.3 0.00 0.00 0.00 75 1002.3
20260505062027 67 72 2.6 5.2 0.00 0.00 0.00 76 1002.4
20260505061527 67 81 1.7 4.3 0.00 0.00 0.00 75 1002.6
20260505061028 68 48 0.9 2.6 0.00 0.00 0.00 74 1002.6
20260505060528 68 25 0.9 2.6 0.00 0.00 0.00 74 1002.5
20260505060027 68 49 0.9 2.6 0.00 0.00 0.00 73 1002.3
20260505055527 69 148 0.0 1.7 0.00 0.00 0.00 71 1002.2
20260505055027 69 354 0.0 1.7 0.00 0.00 0.00 70 1002.2
20260505054527 69 72 0.9 4.3 0.00 0.00 0.00 71 1002.1
20260505054027 69 35 2.6 4.3 0.00 0.00 0.00 69 1002.1
20260505053527 69 47 1.7 4.3 0.00 0.00 0.00 69 1001.9
20260505053027 69 127 2.6 6.1 0.00 0.00 0.00 69 1001.7
20260505052527 69 156 2.6 6.1 0.00 0.00 0.00 69 1001.6
20260505052028 69 170 2.6 7.8 0.00 0.00 0.00 69 1001.5
20260505051528 69 162 3.5 6.1 0.00 0.00 0.00 69 1001.7
20260505051028 69 169 3.5 7.0 0.00 0.00 0.00 68 1001.7
20260505050528 69 163 2.6 6.1 0.00 0.00 0.00 68 1001.6
20260505041527 69 139 2.6 11.3 0.00 0.00 0.00 66 1001.3
20260505041028 69 146 2.6 7.0 0.00 0.00 0.00 66 1001.4
20260505040528 69 138 2.6 7.8 0.00 0.00 0.00 66 1001.5
20260505040027 69 134 1.7 6.1 0.00 0.00 0.00 65 1001.6
20260505035527 69 155 3.5 6.1 0.00 0.00 0.00 65 1001.6
20260505034028 69 159 2.6 6.1 0.00 0.00 0.00 64 1001.8
20260505033528 69 142 4.3 7.8 0.00 0.00 0.00 64 1001.7
20260505032027 70 130 2.6 5.2 0.00 0.00 0.00 63 1002.3
20260505031527 70 122 3.5 6.1 0.00 0.00 0.00 63 1002.4
20260505031027 70 121 2.6 5.2 0.00 0.00 0.00 63 1002.5
20260505030527 70 113 2.6 6.1 0.00 0.00 0.00 63 1002.4
20260505025027 70 119 2.6 5.2 0.00 0.00 0.00 64 1002.5
20260505024527 70 116 3.5 6.1 0.00 0.00 0.00 63 1002.3
20260505024028 70 120 3.5 6.1 0.00 0.00 0.00 63 1002.4
20260505023528 70 108 3.5 7.0 0.00 0.00 0.00 63 1002.4
20260505023027 70 115 2.6 6.1 0.00 0.00 0.00 63 1002.6
20260505022527 70 127 2.6 5.2 0.00 0.00 0.00 63 1002.7
20260505022028 70 111 2.6 6.1 0.00 0.00 0.00 62 1002.6
20260505021528 70 105 2.6 6.1 0.00 0.00 0.00 62 1002.6
20260505021027 71 112 1.7 5.2 0.00 0.00 0.00 62 1002.7
20260505020527 71 117 2.6 3.5 0.00 0.00 0.00 61 1002.6
20260505020028 71 132 2.6 5.2 0.00 0.00 0.00 61 1002.6
20260505015528 71 124 2.6 6.1 0.00 0.00 0.00 60 1002.5
20260505015027 71 133 2.6 8.7 0.00 0.00 0.00 60 1002.5
20260505014527 72 129 1.7 4.3 0.00 0.00 0.00 60 1002.5
20260505014028 72 150 1.7 2.6 0.00 0.00 0.00 60 1002.4
20260505013528 72 127 1.7 5.2 0.00 0.00 0.00 60 1002.4
20260505011527 72 141 1.7 6.1 0.00 0.00 0.00 60 1002.4
20260505011027 73 136 1.7 5.2 0.00 0.00 0.00 60 1002.5
20260505010527 73 148 1.7 3.5 0.00 0.00 0.00 60 1002.4
20260505010027 73 141 1.7 4.3 0.00 0.00 0.00 60 1002.4
20260505005527 74 133 1.7 5.2 0.00 0.00 0.00 59 1002.4
20260505005027 74 154 1.7 5.2 0.00 0.00 0.00 58 1002.4
20260505004527 74 153 2.6 6.1 0.00 0.00 0.00 58 1002.4
20260505004027 74 151 2.6 4.3 0.00 0.00 0.00 58 1002.4
20260505003527 74 136 1.7 4.3 0.00 0.00 0.00 58 1002.4
20260505003028 75 154 1.7 4.3 0.00 0.00 0.00 58 1002.4
20260505002527 75 159 2.6 5.2 0.00 0.00 0.00 57 1002.5
20260505002027 75 186 4.3 9.6 0.00 0.00 0.00 57 1002.5
20260505001527 75 147 1.7 5.2 0.00 0.00 0.00 57 1002.6
20260505001027 75 159 3.5 7.0 0.00 0.00 0.00 57 1002.6
20260504234528 76 178 2.6 5.2 0.00 0.00 0.00 56 1002.9
20260504234027 76 154 3.5 7.0 0.00 0.00 0.00 56 1002.9
20260504233527 76 171 3.5 10.4 0.00 0.00 0.00 56 1003.0
20260504233027 76 183 2.6 7.0 0.00 0.00 0.00 56 1003.1
20260504232527 76 175 3.5 7.0 0.00 0.00 0.00 56 1003.2
20260504232027 76 168 3.5 7.8 0.00 0.00 0.00 55 1003.2
20260504231527 76 171 3.5 7.0 0.00 0.00 0.00 56 1003.2
20260504231027 76 187 4.3 7.8 0.00 0.00 0.00 57 1003.2
20260504230527 76 185 3.5 8.7 0.00 0.00 0.00 56 1003.2
20260504230027 77 175 5.2 9.6 0.00 0.00 0.00 56 1003.1
20260504225528 77 172 3.5 7.0 0.00 0.00 0.00 56 1003.1
20260504225028 77 169 2.6 8.7 0.00 0.00 0.00 56 1003.1
20260504224528 77 183 5.2 9.6 0.00 0.00 0.00 55 1003.1
20260504224028 77 172 2.6 7.8 0.00 0.00 0.00 56 1003.0
20260504223528 77 177 4.3 10.4 0.00 0.00 0.00 55 1003.0
20260504223028 77 179 5.2 10.4 0.00 0.00 0.00 54 1003.0
20260504222527 77 178 3.5 8.7 0.00 0.00 0.00 55 1003.0
20260504222027 77 192 3.5 10.4 0.00 0.00 0.00 55 1002.9
20260504221527 77 186 4.3 12.2 0.00 0.00 0.00 55 1002.9
20260504221027 77 172 3.5 6.1 0.00 0.00 0.00 54 1002.9
20260504220527 78 179 3.5 6.1 0.00 0.00 0.00 55 1002.9
20260504220027 78 185 6.1 12.2 0.00 0.00 0.00 53 1002.9
20260504215527 78 184 4.3 10.4 0.00 0.00 0.00 54 1002.9
20260504215027 78 188 5.2 10.4 0.00 0.00 0.00 54 1003.0
20260504214527 78 191 5.2 9.6 0.00 0.00 0.00 53 1003.0
20260504214027 78 184 6.1 16.5 0.00 0.00 0.00 53 1003.1
20260504213527 78 186 5.2 11.3 0.00 0.00 0.00 53 1003.1
20260504213027 78 186 4.3 11.3 0.00 0.00 0.00 53 1003.2
20260504212527 78 178 3.5 8.7 0.00 0.00 0.00 53 1003.2
20260504212027 78 180 6.1 8.7 0.00 0.00 0.00 52 1003.3
20260504211528 78 181 4.3 7.8 0.00 0.00 0.00 53 1003.4
20260504211028 78 174 4.3 9.6 0.00 0.00 0.00 52 1003.5
20260504210528 78 187 4.3 11.3 0.00 0.00 0.00 52 1003.5
20260504210028 78 176 4.3 7.8 0.00 0.00 0.00 51 1003.5
20260504205528 79 157 4.3 8.7 0.00 0.00 0.00 52 1003.5
20260504205027 79 188 7.0 13.9 0.00 0.00 0.00 50 1003.6
20260504204527 79 174 3.5 7.8 0.00 0.00 0.00 51 1003.7
20260504204027 79 176 5.2 13.0 0.00 0.00 0.00 51 1003.8
20260504203527 79 182 5.2 13.0 0.00 0.00 0.00 50 1003.7
20260504203027 79 188 7.0 13.0 0.00 0.00 0.00 50 1003.8
20260504201527 79 200 7.8 16.5 0.00 0.00 0.00 49 1004.0
20260504201027 79 188 7.0 13.9 0.00 0.00 0.00 48 1004.1
20260504200528 79 190 6.1 13.9 0.00 0.00 0.00 48 1004.1
20260504200028 79 181 6.1 11.3 0.00 0.00 0.00 49 1004.3
20260504195527 79 209 7.0 13.0 0.00 0.00 0.00 48 1004.3
20260504195027 79 201 6.1 11.3 0.00 0.00 0.00 48 1004.3
20260504194528 80 197 6.1 15.6 0.00 0.00 0.00 48 1004.4
20260504194028 80 185 7.0 13.9 0.00 0.00 0.00 46 1004.4
20260504193528 80 188 5.2 10.4 0.00 0.00 0.00 47 1004.5
20260504193028 80 191 6.1 14.8 0.00 0.00 0.00 47 1004.5
20260504192527 80 191 7.8 16.5 0.00 0.00 0.00 46 1004.6
20260504192033 80 205 6.1 13.9 0.00 0.00 0.00 45 1004.7
20260504191527 80 192 6.1 14.8 0.00 0.00 0.00 45 1004.8
20260504191027 80 194 5.2 12.2 0.00 0.00 0.00 46 1004.9
20260504190527 80 186 6.1 13.0 0.00 0.00 0.00 46 1004.9
20260504190027 79 186 7.0 17.4 0.00 0.00 0.00 46 1004.9
20260504185528 79 192 7.0 13.9 0.00 0.00 0.00 45 1004.9
20260504185028 80 192 8.7 14.8 0.00 0.00 0.00 45 1004.9
20260504184527 79 195 7.8 15.6 0.00 0.00 0.00 45 1004.9